Lake Granby Weather Center

Moon Phase Calendar



Lake Granby Water Level
Online Cameras

 


      

Current Conditions in Granby
12/6/2022 1:23:20 PM

28°F
Feels Like 24
Clouds
Humidity
71%
Pressure
29.97"
Wind
3.4 mph (S)
Dew Point
21°F
UV Index
2/10 (Low)
Visibility
6 mi

Hourly Forecast

Date & Time Tue, Dec 6
1:00 PM
Tue, Dec 6
2:00 PM
Tue, Dec 6
3:00 PM
Tue, Dec 6
4:00 PM
Tue, Dec 6
5:00 PM
Tue, Dec 6
6:00 PM
Tue, Dec 6
7:00 PM
Tue, Dec 6
8:00 PM
Tue, Dec 6
9:00 PM
Tue, Dec 6
10:00 PM
Tue, Dec 6
11:00 PM
Wed, Dec 7
12:00 AM
Wed, Dec 7
1:00 AM
Wed, Dec 7
2:00 AM
Wed, Dec 7
3:00 AM
Wed, Dec 7
4:00 AM
Wed, Dec 7
5:00 AM
Wed, Dec 7
6:00 AM
Wed, Dec 7
7:00 AM
Wed, Dec 7
8:00 AM
Wed, Dec 7
9:00 AM
Wed, Dec 7
10:00 AM
Wed, Dec 7
11:00 AM
Wed, Dec 7
12:00 PM
Wed, Dec 7
1:00 PM
Wed, Dec 7
2:00 PM
Wed, Dec 7
3:00 PM
Wed, Dec 7
4:00 PM
Wed, Dec 7
5:00 PM
Wed, Dec 7
6:00 PM
Wed, Dec 7
7:00 PM
Wed, Dec 7
8:00 PM
Wed, Dec 7
9:00 PM
Wed, Dec 7
10:00 PM
Wed, Dec 7
11:00 PM
Thu, Dec 8
12:00 AM
Thu, Dec 8
1:00 AM
Thu, Dec 8
2:00 AM
Thu, Dec 8
3:00 AM
Thu, Dec 8
4:00 AM
Thu, Dec 8
5:00 AM
Thu, Dec 8
6:00 AM
Thu, Dec 8
7:00 AM
Thu, Dec 8
8:00 AM
Thu, Dec 8
9:00 AM
Thu, Dec 8
10:00 AM
Thu, Dec 8
11:00 AM
Thu, Dec 8
12:00 PM
Condition
Clouds

Clouds

Clouds

Clouds

Clouds

Clouds

Clouds

Clouds

Clouds

Clouds

Clouds

Clouds

Clouds

Clouds

Clouds

Clouds

Clouds

Clouds

Clouds

Clouds

Clouds

Clouds

Clouds

Clouds

Clouds

Clouds

Snow

Snow

Clouds

Clouds

Clouds

Clouds

Clouds

Clouds

Clouds

Clouds

Snow

Snow

Snow

Snow

Snow

Snow

Snow

Snow

Snow

Snow

Clouds

Clouds
Temperature 28°F28°F27°F24°F17°F12°F10°F9°F8°F9°F8°F9°F9°F9°F10°F9°F9°F10°F10°F13°F22°F27°F30°F31°F32°F32°F32°F28°F20°F19°F17°F16°F16°F16°F15°F14°F17°F22°F21°F21°F20°F20°F18°F18°F19°F19°F21°F22°F
Feels Like 21°F20°F21°F24°F17°F12°F10°F9°F8°F9°F8°F9°F9°F9°F10°F9°F9°F10°F10°F13°F22°F27°F30°F31°F32°F32°F32°F28°F16°F13°F11°F10°F16°F16°F15°F14°F17°F22°F15°F12°F9°F8°F5°F6°F6°F7°F8°F9°F
Cloudiness 100%97%90%86%83%95%76%73%62%60%62%79%78%79%78%76%77%86%77%66%56%48%41%27%38%56%63%65%68%71%64%61%64%68%67%60%66%77%81%85%87%100%100%100%100%100%100%96%
Visibility 6 mi6 mi6 mi6 mi6 mi6 mi6 mi6 mi6 mi6 mi6 mi6 mi6 mi5 mi6 mi6 mi6 mi6 mi6 mi6 mi6 mi6 mi6 mi6 mi6 mi6 mi6 mi6 mi6 mi6 mi6 mi6 mi6 mi6 mi6 mi6 mi1 mi4 mi1 mi0 mi0 mi1 mi0 mi0 mi0 mi1 mi6 mi6 mi
Precipitation 4%4%4%4%4%0%0%0%0%0%0%0%0%0%0%0%0%0%0%0%0%0%0%2%16%16%40%40%20%0%0%4%7%7%13%32%56%64%64%66%66%53%50%39%47%47%47%0%
Humidity 71%72%74%84%91%95%95%94%95%96%97%97%98%98%98%98%98%97%97%95%87%81%77%75%76%76%79%92%94%92%91%91%91%91%92%94%97%96%96%96%95%93%94%95%92%88%78%75%
Dew Point 21°F21°F21°F20°F15°F6°F3°F3°F2°F2°F2°F3°F3°F3°F4°F3°F3°F4°F4°F7°F16°F19°F21°F21°F22°F23°F23°F22°F15°F13°F11°F10°F9°F10°F9°F8°F12°F17°F16°F16°F15°F14°F12°F13°F13°F12°F11°F11°F
Pressure 29.97"29.97"29.97"30.03"30.18"30.3"30.36"30.39"30.42"30.42"30.42"30.42"30.42"30.42"30.45"30.45"30.45"30.45"30.45"30.39"30.21"30.12"30.06"29.97"29.94"29.94"29.91"29.97"30.15"30.18"30.21"30.24"30.24"30.24"30.24"30.24"30.18"30.09"30.12"30.09"30.12"30.12"30.21"30.21"30.21"30.27"30.24"30.21"
Wind Speed 6.7 mph6.8 mph5.4 mph2.8 mph1 mph1.4 mph1.1 mph1 mph0.8 mph0.5 mph0.4 mph0.4 mph0.3 mph0.4 mph0.6 mph0.3 mph0.7 mph0.6 mph1 mph0.8 mph0.9 mph1 mph1.3 mph2.4 mph2.6 mph2.4 mph1.1 mph1.2 mph3.2 mph3.8 mph4 mph3.8 mph2.1 mph1 mph1.4 mph0.4 mph0.9 mph2.2 mph4.2 mph7.4 mph10 mph10.9 mph11.4 mph10.7 mph13.6 mph13.6 mph14.4 mph14.9 mph
Wind
Direction
252°
WSW
251°
WSW
247°
WSW
233°
SW
159°
SSE
137°
SE
139°
SE
124°
SE
123°
ESE
107°
ESE
76°
ENE
105°
ESE
103°
ESE
66°
ENE
358°
N
345°
NNW

N
70°
ENE
111°
ESE
122°
ESE
266°
W
253°
WSW
247°
WSW
259°
W
285°
WNW
268°
W
204°
SSW
106°
ESE
97°
E
100°
E
98°
E
92°
E
87°
E
68°
ENE
62°
ENE
13°
NNE
189°
S
249°
WSW
287°
WNW
290°
WNW
279°
W
272°
W
273°
W
273°
W
281°
W
285°
WNW
285°
WNW
286°
WNW

Daily Forecast

Date High Low Precip. Humidity
Today
Dec 6

Snow
28 °F
8 °F
69%
75%
Wednesday
Dec 7

Snow
32 °F
9 °F
40%
77%
Thursday
Dec 8

Snow
23 °F
3 °F
66%
78%
Friday
Dec 9

Snow
24 °F
4 °F
38%
64%
Saturday
Dec 10

Snow
26 °F
6 °F
49%
74%
Sunday
Dec 11

Clouds
30 °F
10 °F
2%
74%
Monday
Dec 12

Snow
31 °F
11 °F
100%
64%
Tuesday
Dec 13

Snow
17 °F
-3 °F
100%
92%
Wednesday
Dec 14

Snow
12 °F
-8 °F
20%
87%
Thursday
Dec 15

Clear
26 °F
-7 °F
0%
68%
Friday
Dec 16

Clouds
33 °F
4 °F
2%
64%
Saturday
Dec 17

Clouds
27 °F
6 °F
2%
79%
Sunday
Dec 18

Clouds
23 °F
4 °F
0%
92%
Monday
Dec 19

Snow
23 °F
4 °F
59%
93%
Tuesday
Dec 20

Snow
23 °F
8 °F
32%
89%
Wednesday
Dec 21

Clouds
30 °F
8 °F
0%
91%

Temperature 8-14 Day Outlook



Precipitation 8-14 Day Outlook




Quick Links
Lake Granby News
Lake Granby Photos
Lake Granby Videos




About Us
Contact Us
Site Map
Search Site
Advertise With Us
   
Granby.USLakes.info
THE LAKE GRANBY WEBSITE

Copyright 2022, Lakes Online
Privacy    |    Legal